Content
SEND FEEDBACK

Daily
Averages
Monthly
Summary
United States of America

BROOKLYN, NEW YORK


Home > North America > United States > New York
Elevation: 2 feet     Latitude: 40 36N     Longitude: 073 59W

WEATHER
 
SELECT A DAY
Number of Records: 185,338;   Date Range: 1/1/95 - 7/26/14
 
SHARE

PRINT THIS DATA

[ ← Previous Day ]
WEATHER ALMANAC - JANUARY 3, 2013
[ Next Day → ]
[ °C ]   °F
Weather ElementAverageHighLow
Temperature30.1 °F33.1 °F (12:51 pm)26.1 °F (6:51 am)
Dewpoint14.6 °F19 °F (11:51 pm)12 °F (11:51 am)
Humidity53 %61 % (3:51 am)42 % (2:51 pm)
Barometer30.15 in30.21 in (9:51 am)30.09 in (2:51 pm)
Wind Speed11.5 mph16.1 mph (1:51 am)
Weather ElementAverage
Visibility10 mi
Wind DirectionWNW (287 °)

Weather ElementTotal
Precipitation---
Heating Degree Days35.4 (Base 65)
Averaged from 23 records on January 3, 2013
WEATHER CONDITIONS BREAKOUT
WIND DIRECTION BREAKOUT
WEATHER BY HOUR - JANUARY 3, 2013
[ °C ]   °F
Local TimeTemperatureDewpointHumidityBarometerVisibilityWind DirectionWind SpeedGust SpeedPrecipitationEventsConditions
1:51 AM28.9 °F14.0 °F54 %30.19 in10.0 miNW (310°)16.1 mphOvercast
2:51 AM28.9 °F14.0 °F54 %30.20 in10.0 miNW (310°)12.7 mphOvercast
3:51 AM27.0 °F15.1 °F61 %30.19 in10.0 miNW (320°)9.2 mphOvercast
4:51 AM27.0 °F15.1 °F61 %30.18 in10.0 miNNW (330°)12.7 mphOvercast
5:51 AM27.0 °F15.1 °F61 %30.19 in10.0 miNNW (340°)9.2 mphOvercast
6:51 AM26.1 °F14.0 °F60 %30.20 in10.0 miNNW (340°)12.7 mphMostly Cloudy
7:51 AM26.1 °F14.0 °F60 %30.20 in10.0 miNNW (330°)6.9 mphMostly Cloudy
8:51 AM28.0 °F14.0 °F56 %30.20 in10.0 miNW (310°)10.4 mphMostly Cloudy
9:51 AM28.9 °F14.0 °F54 %30.21 in10.0 miWNW (300°)10.4 mphMostly Cloudy
10:51 AM30.9 °F15.1 °F52 %30.19 in10.0 miNW (320°)8.1 mphMostly Cloudy
11:51 AM30.0 °F12.0 °F47 %30.16 in10.0 miWNW (300°)10.4 mphMostly Cloudy
12:51 PM33.1 °F12.9 °F43 %30.13 in10.0 miWest (280°)12.7 mphScattered Clouds
1:51 PM33.1 °F12.9 °F43 %30.11 in10.0 miWSW (250°)11.5 mphScattered Clouds
2:51 PM33.1 °F12.0 °F42 %30.09 in10.0 miWest (270°)5.8 mphScattered Clouds
3:51 PM32.0 °F12.9 °F45 %30.09 in10.0 miWSW (250°)8.1 mphScattered Clouds
4:51 PM30.9 °F15.1 °F52 %30.10 in10.0 miWest (260°)10.4 mphScattered Clouds
5:51 PM30.9 °F15.1 °F52 %30.11 in10.0 miWSW (250°)13.8 mphPartly Cloudy
6:51 PM30.9 °F15.1 °F52 %30.12 in10.0 miWSW (250°)15.0 mphScattered Clouds
7:51 PM32.0 °F15.1 °F50 %30.12 in10.0 miWSW (250°)13.8 mphOvercast
8:51 PM32.0 °F16.0 °F52 %30.12 in10.0 miWest (260°)13.8 mphMostly Cloudy
9:51 PM32.0 °F17.1 °F54 %30.11 in10.0 miWest (260°)13.8 mphMostly Cloudy
10:51 PM32.0 °F17.1 °F54 %30.11 in10.0 miWest (260°)13.8 mphMostly Cloudy
11:51 PM32.0 °F19.0 °F59 %30.09 in10.0 miWSW (250°)13.8 mphMostly Cloudy
Hourly data recorded from KJFK, located miles away from Brooklyn, New York







STORIES FROM OUR PARTNERS